Flag for Spain Weather past 2 weeks in Barcelona, Barcelona, Spain

Now
70 °F

Passing clouds.


Feels Like: 70 °F
Forecast: 64 / 83 °F
Wind: 13 mph from East

Location: Barcelona Airport

Current Time: Jul 29, 2014 at 7:21:41 AM

Latest Report: Jul 29, 2014 at 6:30 AM


Visibility: N/A

Pressure: 29.86 "Hg

Humidity: 73%

Dew point: 61 °F

Location of BarcelonaLocation

Historic Weather in Barcelona — Graph

°F

Barcelona temperature yesterday

Maximum temperature yesterday: 82 °F (at 12:30 PM)
Minimum temperature yesterday: 70 °F (at 10:30 PM)
Average temperature yesterday: 77 °F

Past Weeks' High & Low Weather Summary

 TemperatureHumidityPressure
High88 °F (Jul 20, 5:00 PM)94% (Jul 29, 12:00 AM)30.12 "Hg (Jul 29, 12:00 AM)
Low68 °F (Jul 21, 4:00 AM)22% (Jul 20, 7:00 PM)29.77 "Hg (Jul 20, 4:00 AM)
Average77 °F69%29.97 "Hg
* Reported Jul 14 6:00 AM — Jul 29 6:00 AM, Barcelona, Weather by CustomWeather, © 2014

Note: Actual official high and low records may vary slightly from our data, if they occured in-between our weather recording intervals... More about our weather records

Advertising

Barcelona weather history for previous 24 hours

 ConditionsComfort  
Time TempWeatherWind HumidityBarometerVisibility
6:00 AM
Jul 29
70 °FPassing clouds.10 mph78%29.86 "HgN/A
5:30 AM68 °FRain. Passing clouds.13 mph88%29.86 "HgN/A
4:30 AM72 °FPassing clouds.10 mph78%29.83 "HgN/A
3:30 AM72 °FPassing clouds.9 mph88%29.86 "HgN/A
3:00 AM72 °FPassing clouds.12 mph88%29.86 "HgN/A
2:30 AM72 °FPassing clouds.9 mph88%29.86 "HgN/A
2:00 AM72 °FPassing clouds.8 mph88%29.86 "HgN/A
1:30 AM72 °FPassing clouds.8 mph88%29.89 "HgN/A
1:00 AM72 °FPassing clouds.6 mph88%29.89 "HgN/A
12:30 AM72 °FPassing clouds.6 mph88%29.89 "HgN/A
12:00 AM72 °FPassing clouds.10 mph94%29.89 "Hg6 mi
11:30 PM
Jul 28
72 °FPassing clouds.8 mph88%29.89 "Hg6 mi
11:00 PM72 °FRain. Passing clouds.8 mph88%29.89 "Hg5 mi
10:30 PM70 °FRain. Passing clouds.6 mph88%29.92 "HgN/A
10:00 PM72 °FScattered clouds.13 mph88%29.89 "HgN/A
9:30 PM72 °FScattered clouds.8 mph88%29.92 "Hg5 mi
9:00 PM73 °FRain showers. Partly sunny.12 mph83%29.89 "Hg5 mi
8:45 PM73 °FRain showers. Partly sunny.12 mph89%29.89 "Hg4 mi
8:30 PM73 °FSprinkles. Partly sunny.14 mph89%29.89 "HgN/A
8:00 PM75 °FSprinkles. Partly sunny.13 mph83%29.86 "Hg4 mi
7:30 PM75 °FPartly sunny.15 mph78%29.89 "HgN/A
7:00 PM77 °FScattered clouds.15 mph69%29.89 "HgN/A
6:30 PM79 °FScattered clouds.15 mph70%29.89 "HgN/A
6:00 PM79 °FScattered clouds.14 mph70%29.89 "HgN/A
5:30 PM81 °FScattered clouds.10 mph70%29.89 "HgN/A
5:00 PM79 °FScattered clouds.7 mph74%29.89 "HgN/A
4:30 PM81 °FScattered clouds.8 mph70%29.92 "HgN/A
4:00 PM81 °FScattered clouds.9 mph70%29.92 "HgN/A
3:30 PM81 °FScattered clouds.12 mph70%29.92 "HgN/A
3:00 PM81 °FSprinkles. Scattered clouds.13 mph70%29.92 "HgN/A
2:30 PM82 °FPassing clouds.12 mph66%29.92 "HgN/A
2:00 PM82 °FPassing clouds.12 mph66%29.92 "HgN/A
1:30 PM82 °FPassing clouds.10 mph66%29.92 "HgN/A
1:00 PM81 °FPassing clouds.10 mph70%29.92 "HgN/A
12:30 PM82 °FPassing clouds.12 mph66%29.95 "HgN/A
12:00 PM81 °FScattered clouds.9 mph74%29.95 "HgN/A
11:30 AM81 °FPassing clouds.10 mph70%29.95 "HgN/A
11:00 AM79 °FPassing clouds.8 mph74%29.95 "HgN/A
10:30 AM81 °FPassing clouds.7 mph70%29.95 "HgN/A
10:00 AM79 °FPassing clouds.3 mph74%29.95 "HgN/A
9:30 AM77 °FPassing clouds.5 mph74%29.95 "HgN/A
9:00 AM75 °FPassing clouds.5 mph78%29.98 "HgN/A
8:30 AM75 °FThunderstorms. Passing clouds.7 mph78%29.98 "HgN/A
8:00 AM73 °FPassing clouds.7 mph83%29.98 "HgN/A
7:30 AM73 °FPassing clouds.6 mph83%29.95 "HgN/A
7:00 AM73 °FPassing clouds.6 mph83%29.95 "HgN/A
Weather by CustomWeather, © 2014

See weather overviewHow to use our weather pages